Wind_Speed
11 10 12 10 11 10 11 10 10 11 11 10 10 10 11 11 10 11 10 12 12 11 13 12 15 14 13 13 15 15 14 13 11
10 12 13 12 12 12 12 11 11 10 10 10 11 10 10 11 11 11 12 13 13 13 13 12 15 17 15 15 15 16 17 17 15
10 10 12 12 12 13 12 11 12 11 10 10 11 9 9 10 10 9 10 10 12 13 14 13 13 15 17 17 16 17 19 19 19
9 9 10 11 11 12 12 11 12 10 10 10 10 9 9 8 8 8 5 3 5 5 8 8 8 8 12 18 17 17 19 20 20
10 9 10 10 10 11 11 11 11 10 11 10 10 9 8 8 8 7 7 5 6 6 8 9 9 9 9 8 10 14 17 19 21
8 8 9 9 11 11 11 10 10 9 9 9 9 9 8 8 7 6 7 8 7 8 9 10 10 11 12 14 15 14 14 13 17
8 7 8 9 11 11 10 9 9 9 10 9 8 9 8 8 7 6 6 8 8 8 9 11 11 11 12 13 14 15 15 15 16
9 8 9 10 13 12 11 10 11 12 11 10 9 9 8 9 7 6 6 6 8 8 9 11 12 11 12 13 14 15 16 17 18
11 11 11 12 15 13 13 13 13 13 12 11 10 8 9 8 8 5 6 7 8 11 11 12 13 13 14 14 15 15 16 17 18
13 12 11 12 14 14 14 14 15 15 15 12 11 9 10 7 6 3 5 8 11 10 11 13 13 13 14 14 16 16 17 18 18
12 12 12 12 13 13 13 15 15 16 16 14 12 11 8 5 5 2 5 9 11 12 13 15 17 15 13 13 15 17 18 19 20
11 11 11 12 12 12 13 13 13 15 16 16 13 11 10 4 1 4 5 9 11 14 15 15 15 15 15 14 14 15 14 16 18
11 10 10 11 11 12 13 14 15 16 17 18 14 11 7 3 6 5 6 9 12 14 15 17 17 16 15 16 16 17 17 18 19
11 11 11 11 10 11 12 13 15 15 20 17 12 8 9 7 8 4 6 8 11 15 15 14 17 17 16 16 18 19 20 21 26
12 12 12 12 11 11 12 13 13 13 20 14 8 9 16 13 11 9 8 9 13 17 15 16 15 17 18 18 19 21 23 25 28
11 12 13 12 12 13 13 14 14 13 20 10 7 1 3 6 8 3 6 12 15 19 14 16 13 14 17 18 19 21 23 25 30
11 13 13 12 12 12 13 14 14 9 15 7 4 3 3 3 3 6 7 15 18 20 18 12 10 13 16 19 21 23 23 25 29
11 12 12 11 12 13 13 13 13 11 9 8 7 3 2 7 4 5 11 15 22 19 16 11 9 12 15 18 22 25 25 25 27
10 11 11 11 11 11 12 12 12 11 11 7 8 5 4 2 4 6 16 21 18 19 14 12 12 13 16 19 22 25 25 25 25
9 10 10 11 11 10 10 10 11 10 9 9 8 6 7 2 2 4 8 22 19 20 12 7 13 17 19 21 22 23 23 23 23
Wind_Direction
23 22 11 7 5 3 359 355 352 347 341 334 326 319 301 290 283 282 284 284 287 293 297 287 256 253 246 248 245 240 237 235 232
20 19 18 17 14 13 7 3 359 355 351 347 340 333 318 304 288 278 275 280 287 290 303 306 284 255 253 250 244 246 242 239 237
19 14 17 17 17 12 8 10 9 8 7 3 353 345 344 338 326 294 277 279 284 291 310 306 308 267 260 259 257 250 248 244 238
15 16 15 11 12 12 11 6 1 2 1 358 357 353 347 348 356 357 346 322 349 317 337 338 317 309 289 266 271 263 258 253 248
28 28 21 21 19 16 15 14 12 5 1 356 352 348 342 344 349 358 6 7 351 332 336 337 326 314 307 309 299 284 268 263 260
22 23 24 17 16 10 9 9 6 5 8 10 7 359 345 338 341 344 350 344 337 327 328 326 321 315 303 292 291 292 286 287 274
17 20 20 19 12 9 12 11 7 5 5 3 359 357 356 355 353 353 345 344 340 334 333 324 320 322 316 309 303 297 291 285 281
28 25 22 20 13 14 12 10 9 5 358 354 355 356 355 353 346 348 352 356 347 341 334 326 325 325 316 309 304 296 292 288 281
28 23 21 15 13 11 10 8 4 360 355 349 344 341 342 338 351 350 356 357 351 343 344 333 328 321 314 312 308 303 294 288 283
22 18 12 10 9 8 6 2 358 356 353 350 344 337 335 333 336 356 15 0 349 7 9 359 345 331 319 314 314 307 301 294 290
13 10 5 2 1 2 359 354 352 352 348 348 344 333 333 330 358 53 35 19 27 25 14 13 13 8 353 341 326 313 304 303 293
4 359 358 356 355 352 349 348 348 347 348 347 342 335 315 284 16 109 50 33 29 26 23 15 8 8 4 349 347 346 335 318 309
355 354 356 352 348 348 348 351 350 351 350 348 350 348 355 149 135 105 57 34 21 17 19 20 13 13 6 358 355 349 342 335 318
356 357 357 354 350 351 354 355 353 354 350 352 359 53 69 110 125 98 59 35 20 10 8 11 11 8 5 359 358 355 352 342 336
1 1 3 359 356 356 359 359 358 356 353 353 30 105 80 91 93 97 59 38 21 9 4 6 6 7 11 7 3 356 354 352 348
6 6 2 1 2 2 2 2 356 1 3 359 6 78 256 52 74 53 19 11 6 1 1 355 2 7 12 12 8 2 357 355 353
8 4 7 7 6 6 6 8 2 354 9 358 336 359 337 330 317 17 354 354 354 358 358 3 15 23 21 18 12 7 2 358 358
9 10 10 11 12 10 6 4 6 356 360 27 30 355 331 325 321 325 347 343 347 359 4 8 43 33 21 13 9 7 4 0 1
15 15 12 12 15 13 10 6 6 0 356 353 358 344 305 330 325 318 326 335 347 359 21 57 48 30 18 10 7 3 4 1 0
20 21 16 16 18 18 14 13 11 4 350 349 346 342 325 299 310 297 319 329 337 353 30 58 51 32 17 8 1 357 358 3 2
Height
817 815 814 813 811 810 808 807 806 805 804 803 801 800 799 798 798 798 798 799 799 799 800 798 799 799 800 800 801 801 802 802 803
818 817 815 814 812 811 809 807 806 804 803 803 802 800 798 797 797 796 796 797 798 798 798 797 797 797 798 798 799 799 799 800 801
819 818 817 815 814 813 811 809 807 805 804 802 801 799 798 797 796 795 794 794 795 796 797 796 795 795 796 796 796 797 797 798 799
819 818 817 816 815 813 812 810 808 806 804 802 800 799 798 797 796 795 793 793 795 796 795 794 793 793 792 793 794 795 795 796 796
820 818 817 816 815 813 812 810 808 806 804 803 801 799 798 797 796 794 795 793 794 795 794 793 792 791 791 791 791 791 792 793 794
821 819 818 816 815 813 811 809 807 806 804 802 800 799 797 796 795 794 794 794 793 794 792 792 791 789 788 789 789 789 789 790 790
821 820 818 817 815 813 811 809 807 805 803 802 800 798 797 796 795 794 794 793 793 792 791 791 789 787 787 787 787 786 786 786 786
822 821 819 817 815 813 811 809 807 805 803 801 800 798 797 797 795 794 793 791 793 791 790 790 788 786 786 785 785 784 784 783 782
823 821 819 817 815 813 811 809 807 805 803 801 799 797 796 796 795 794 793 792 791 790 789 788 786 785 784 783 783 782 781 780 780
823 822 820 818 816 813 811 809 807 804 802 800 798 796 795 795 794 794 794 793 790 789 788 786 784 783 782 781 780 779 778 778 777
823 821 819 818 815 813 811 808 806 803 801 799 797 795 794 793 794 794 794 793 791 789 788 786 784 782 781 780 779 777 775 774 773
822 820 818 817 815 813 811 808 805 802 800 798 795 793 792 792 792 794 794 793 791 789 788 786 785 782 781 780 778 775 773 771 769
822 820 817 816 814 812 810 807 804 801 798 795 793 791 790 789 791 793 793 792 792 790 788 786 784 782 780 780 777 774 771 768 765
823 820 818 816 814 811 809 807 804 801 797 794 792 792 790 790 791 792 792 792 791 790 787 786 784 781 779 778 775 772 768 765 760
823 821 818 817 814 812 809 807 805 802 799 795 793 793 792 792 792 791 792 791 790 789 787 784 782 780 778 776 773 771 766 762 755
823 821 819 817 815 813 810 808 806 802 799 796 794 793 793 793 793 792 791 790 789 787 786 783 781 779 777 775 772 769 765 760 754
823 821 819 817 815 814 812 810 807 805 803 801 800 799 795 792 792 791 790 788 787 786 784 781 780 778 776 774 772 768 763 759 752
823 822 820 818 815 814 813 811 809 808 807 805 805 804 804 798 791 791 789 787 786 785 782 779 779 778 776 774 771 767 762 758 753
823 822 821 818 816 814 813 812 811 809 808 808 807 807 806 805 800 791 788 787 785 783 781 780 779 777 776 774 771 767 762 758 753
824 822 821 819 817 814 813 811 810 810 810 809 809 808 807 805 805 800 791 787 784 783 781 780 778 777 776 773 771 767 762 758 753